Baker Lake,

12:38 PM CDT on September 20, 2017 (GMT -0500)
Baker Lake

Weather History for CYBK - January, 2013

Change the Weather History Date:

Wednesday, January 30, 2013

  Actual Average Record
Temperature  
Mean Temperature -30 °F -  
Max Temperature -29 °F -20 °F 0 °F (2000)
Min Temperature -31 °F -32 °F -41 °F (1997)
Degree Days  
Heating Degree Days 95    
Moisture  
Dew Point -39 °F    
Average Humidity 61    
Maximum Humidity 68    
Minimum Humidity 44    
Precipitation  
Precipitation 0.00 in 0.01 in - ()
Sea Level Pressure  
Sea Level Pressure 30.09 in    
Wind  
Wind Speed 17 mph ()    
Max Wind Speed 26 mph    
Max Gust Speed 31 mph    
Visibility 14.0 miles    
Events Snow    
Averages and records for this station are not official NWS values.
T = Trace of Precipitation, MM = Missing Value Source: Averaged Metar Reports

Daily Weather History Graph

Daily Weather History Graph

Search for Another Location

Airport or City:

Trip Planner

Search our weather history database for the weather conditions in past years. The results will help you decide how hot, cold, wet, or windy it might be!

Date:

Astronomy

Jan. 30, 2013 Rise Set
Actual Time 9:10 AM CST 4:05 PM CST
Civil Twilight 8:12 AM CST 5:03 PM CST
Nautical Twilight 7:12 AM CST 6:03 PM CST
Astronomical Twilight 6:16 AM CST 6:59 PM CST
Moon 9:58 PM CST (1/30) 8:58 AM CST (1/30)
Length of Visible Light 8h 51m
Length of Day
6h 54m
Waning Gibbous, 87% of the Moon is Illuminated
Jan 30
Waning Gibbous
Feb 3
Last Quarter
Feb 10
New
Feb 17
First Quarter
Feb 25
Full

Hourly Weather History & Observations

Time (CST) Temp. Windchill Dew Point Humidity Pressure Visibility Wind Dir Wind Speed Gust Speed Precip Events Conditions
12:00 AM -31 °F - -40 °F 44% 30.10 in 15 mi NW 20.7 mph - - Snow Low Drifting Snow
12:00 AM -31.0 °F -63.1 °F -40.0 °F 62% 30.10 in 15.0 mi NW 20.7 mph - N/A Snow Low Drifting Snow
12:17 AM - - - N/A% - 15.0 mi NW 15.0 mph - N/A   Scattered Clouds
1:00 AM -31.0 °F -60.8 °F -40.0 °F 62% 30.09 in 15.0 mi NW 17.3 mph 23.0 mph N/A Snow Low Drifting Snow
2:00 AM -29.2 °F -58.5 °F -38.2 °F 62% 30.08 in 5.0 mi NW 17.3 mph 23.0 mph N/A Snow Ice Crystals
2:30 AM - - - N/A% - 3.0 mi NW 25.3 mph 31.1 mph N/A   Unknown
3:00 AM -29.2 °F -62.1 °F -38.2 °F 62% 30.07 in 5.0 mi NW 23.0 mph 28.8 mph N/A Snow Light Snow
4:00 AM -29.2 °F -60.7 °F -38.2 °F 62% 30.08 in 6.0 mi NW 20.7 mph 26.5 mph N/A Snow Light Snow
5:00 AM -29.2 °F -62.1 °F -38.2 °F 62% 30.07 in 6.0 mi NW 23.0 mph 28.8 mph N/A Snow Ice Crystals
6:00 AM -30 °F - -39 °F 45% 30.07 in 10 mi NW 23.0 mph - - Snow Snow
6:00 AM -31.0 °F -63.1 °F -38.2 °F 68% 30.07 in 10.0 mi NW 20.7 mph 26.5 mph N/A Snow Low Drifting Snow
7:00 AM -29.2 °F -57.6 °F -38.2 °F 62% 30.09 in 15.0 mi NW 16.1 mph - N/A Snow Low Drifting Snow
8:00 AM -29.2 °F -58.5 °F -38.2 °F 62% 30.07 in 15.0 mi NNW 17.3 mph 23.0 mph N/A Snow Low Drifting Snow
9:00 AM -31.0 °F -60.0 °F -38.2 °F 68% 30.08 in 20.0 mi NW 16.1 mph - N/A Snow Low Drifting Snow
10:00 AM -29.2 °F -59.3 °F -38.2 °F 62% 30.08 in 20.0 mi NW 18.4 mph - N/A Snow Low Drifting Snow
11:00 AM -29.2 °F -59.3 °F -38.2 °F 62% 30.08 in 20.0 mi NW 18.4 mph - N/A Snow Low Drifting Snow
12:00 PM -30 °F - -39 °F 45% 30.08 in 19 mi NW 19.6 mph - - Snow Snow
12:00 PM -29.2 °F -60.0 °F -38.2 °F 62% 30.08 in 20.0 mi NW 19.6 mph - N/A Snow Low Drifting Snow
1:00 PM -31.0 °F -54.7 °F -38.2 °F 68% 30.09 in 20.0 mi WNW 10.4 mph - N/A   Partly Cloudy
2:00 PM -31.0 °F -59.1 °F -38.2 °F 68% 30.09 in 15.0 mi NW 15.0 mph - N/A   Partly Cloudy
3:00 PM -31.0 °F -61.6 °F -40.0 °F 62% 30.10 in 20.0 mi NW 18.4 mph - N/A Snow Low Drifting Snow
4:00 PM -31.0 °F -60.0 °F -40.0 °F 62% 30.11 in 20.0 mi NW 16.1 mph - N/A Snow Low Drifting Snow
5:00 PM -31.0 °F -54.7 °F -40.0 °F 62% 30.12 in 15.0 mi NW 10.4 mph - N/A Snow Low Drifting Snow
6:00 PM -31 °F - -39 °F 46% 30.12 in 15 mi NW 16.1 mph - - Snow Snow
6:00 PM -31.0 °F -60.0 °F -40.0 °F 62% 30.12 in 15.0 mi NW 16.1 mph - N/A Snow Low Drifting Snow
7:00 PM -31.0 °F -58.1 °F -38.2 °F 68% 30.12 in 15.0 mi NW 13.8 mph - N/A Snow Low Drifting Snow
8:00 PM -31.0 °F -60.0 °F -40.0 °F 62% 30.12 in 15.0 mi NW 16.1 mph - N/A Snow Low Drifting Snow
9:00 PM -31.0 °F -60.0 °F -40.0 °F 62% 30.12 in 15.0 mi NW 16.1 mph - N/A Snow Low Drifting Snow
10:00 PM -29.2 °F -62.7 °F -38.2 °F 62% 30.11 in 10.0 mi NW 24.2 mph - N/A Snow Low Drifting Snow
11:00 PM -29.2 °F -63.9 °F -38.2 °F 62% 30.09 in 10.0 mi NW 26.5 mph - N/A Snow Low Drifting Snow